Showing default

CYGFM03, 41891

Orbit data source: Space-Track

CYGFM03, 41891 is an American payload satellite in LEO that was launched on Thu, 15 Dec 2016 UTC via a PEGASUS XL launch vehicle from the Pegasus Launch, Eastern Range Air Space (ERAS). Payload-class satellites include a variety of spacecraft equipped with specific instruments for various scientific and technological missions. These include communications satellites like Starlink; space stations such as the ISS; scientific satellites like the Hubble; Earth observation satellites from companies like Planet Labs, Umbra, and HawkEye 360; GPS; miniature CubeSats for education and research; and military/defense satellites.

Loading next visibility...
Identifier
41891, 2016-078H
Orbit
LEO
Country
Flag of USUS
Related business
Manufacturer
SST-US
Mission
Extended mission Civil Science
Bus & Motor
CYGNSS, Unknown motor
Mass
29 kg wet, 29 kg dry
Launch date (UTC)
2016-12-15 (9 years ago)
Launch vehicle
PEGASUS XL
Launch site
Pegasus Launch, Eastern Range Air Space (ERAS)
Object type
Payload
Rocket body
Debris
Shape & HBR
Half Hex Cyl + 2 Pan, 0.8 m
Radar Cross Section
0.450 m², Medium (>0.1 m² and < 1m²)

Expand to show TLE details & history
Last TLE update: 16 hours ago

TLE from 16 hours ago
0 CYGFM03
1 41891U 16078H   25259.33892257  .00019356  00000-0  39789-3 0  9990
2 41891  34.9422 234.2652 0006254 115.0178 245.1192 15.45027731486381
Epoch: 2025-09-16T08:08Z
TLE epoch observation values (Epoch: 2025-09-16T08:08:02.91Z)
Latitude
-0.00002°
Longitude
116.7224°
Altitude
431.981 km
Speed
7.654 km/s
True Right ascension
15h 37m 03s
True Declination
0° 00' 00"
Sunlit
Object was in daylight at epoch
Visualization orbit readout
Latitude
Unknown
Longitude
Unknown
Altitude
Unknown
Speed
Unknown
Apparent Right ascension
Unknown
Apparent Declination
Unknown
Sunlit
N/A
Visualization observer readout
Local Sidereal Time
16:47:33
Azimuth
Unknown
Elevation
Unknown
Doppler factor
Unknown
Orbital elements
Apogee altitude
438.848 km
Perigee altitude
430.326 km
Semi-major axis
6,812.724 km
Eccentricity
0.00063
Inclination
34.9422°
RAAN
234.2652°
Arg. of periapsis
115.0178°
True anomaly
245.05421°
Mean anomaly
245.1192°
Eccentric anomaly
245.0867°
Mean motion
3.85977 °/min
Orbital period
93.27 mins
BSTAR
0.00039789
Loading maneuver chart data...
Computing Atmospheric mass density...
Loading historical data...
Loading historical data...
Loading historical data...
Loading historical data...
Loading historical data...
Loading historical data...
Loading historical data...

Documentation

Showing up to 5 results
|